This demonstration page uses our WeatherBlox Daily Observations layout. Learn more.

Left ArrowRight Arrow

38.80484, -77.04692

Hourly Observations for May 16, 2015

Temp ( °F °C ) Dew Point ( °F °C ) Humidity (%) Winds ( mph kmh ) Pressure ( in mb ) Visibility ( mi km ) Precip ( " mm )
12:52 am 00:52 Mostly Cloudy 68 20 58 14.4 70 70 S 10 17 30.19 1022 10 16 0.00 0.00
1:06 am 01:06 Mostly Cloudy 66 19 57 14 73 73 S 9 15 30.18 1022 10 16 0.00 0.00
1:52 am 01:52 Mostly Cloudy 67 19.4 58 14.4 73 73 SSW 7 11 30.17 1022 10 16 0.00 0.00
2:52 am 02:52 Mostly Cloudy 67 19.4 58 14.4 73 73 SSW 8 13 30.16 1021 10 16 0.00 0.00
2:59 am 02:59 Mostly Cloudy 66 19 57 14 73 73 S 8 13 30.15 1021 10 16 0.00 0.00
3:52 am 03:52 Mostly Cloudy 67 19.4 60 15.6 79 79 S 8 13 30.14 1021 10 16 0.00 0.00
4:52 am 04:52 Mostly Cloudy 67 19.4 61 16.1 81 81 S 7 11 30.14 1021 10 16 0.00 0.00
5:12 am 05:12 Mostly Cloudy 66 19 61 16 83 83 S 8 13 30.15 1021 10 16 0.00 0.00
5:52 am 05:52 Mostly Cloudy 67 19.4 61 16.1 81 81 SSW 6 9 30.15 1021 10 16 0.00 0.00
6:52 am 06:52 Mostly Cloudy 68 20 61 16.1 78 78 SSW 7 11 30.17 1022 10 16 0.00 0.00
7:52 am 07:52 Mostly Cloudy 70 21.1 62 16.7 76 76 SSW 8 13 30.17 1022 10 16 0.00 0.00
8:52 am 08:52 Mostly Cloudy 73 22.8 64 17.8 74 74 SSW 7 11 30.18 1022 10 16 0.00 0.00
9:52 am 09:52 Mostly Cloudy 75 23.9 65 18.3 71 71 S 10 17 30.19 1022 10 16 0.00 0.00
10:52 am 10:52 Mostly Cloudy 77 25 65 18.3 66 66 S 10 17 30.19 1022 10 16 0.00 0.00
11:52 am 11:52 Mostly Cloudy 80 26.7 66 18.9 62 62 S 10 17 30.18 1022 10 16 0.00 0.00
12:52 pm 12:52 Mostly Cloudy 83 28.3 67 19.4 59 59 SSE 9 15 30.16 1021 10 16 0.00 0.00
1:52 pm 13:52 Mostly Cloudy 85 29.4 66 18.9 53 53 S 9 15 30.13 1020 10 16 0.00 0.00
2:52 pm 14:52 Mostly Cloudy 86 30 67 19.4 53 53 S 13 20 30.12 1020 10 16 0.00 0.00
3:52 pm 15:52 Mostly Cloudy 87 30.6 66 18.9 50 50 SSE 8 13 30.09 1019 10 16 0.00 0.00
4:52 pm 16:52 Mostly Cloudy 85 29.4 67 19.4 55 55 S 12 19 30.09 1019 10 16 0.00 0.00
5:40 pm 17:40 Cloudy 82 28 66 19 58 58 S 9 15 30.09 1019 10 16 0.00 0.00
5:52 pm 17:52 Cloudy with Light Rain 83 28.3 66 18.9 57 57 S 9 15 30.10 1019 10 16 0.00 0.03
6:05 pm 18:05 Cloudy with Thunderstorms 82 28 66 19 58 58 SW 3 6 30.12 1020 9 14 0.00 0.03
6:10 pm 18:10 Windy with Storms Likely 81 27 66 19 62 62 NNW 22 35 30.15 1021 8 13 0.00 0.00
6:19 pm 18:19 Cloudy with Thunderstorms 73 23 66 19 78 78 W 15 24 30.15 1021 7 11 0.01 0.25
6:25 pm 18:25 Cloudy with Thunderstorms 73 23 66 19 78 78 SW 12 19 30.15 1021 3 4 0.02 0.51
6:28 pm 18:28 Cloudy with Thunderstorms 73 23 66 19 78 78 W 15 24 30.15 1021 1 2 0.00 0.00
6:33 pm 18:33 Cloudy with Strong Thunderstorms 72 22 66 19 83 83 NW 20 31 30.15 1021 1 1 0.19 4.83
6:40 pm 18:40 Cloudy with Strong Thunderstorms 70 21 64 18 83 83 N 12 19 30.15 1021 2 2 0.41 10.41
6:46 pm 18:46 Cloudy with Strong Thunderstorms 70 21 64 18 83 83 N 7 11 30.15 1021 4 6 0.50 12.70
6:52 pm 18:52 Cloudy with Thunderstorms 71 21.7 65 18.3 81 81 Calm 30.15 1021 6 10 0.54 13.72
6:58 pm 18:58 Cloudy with Thunderstorms 72 22 64 18 78 78 Calm 30.15 1021 7 11 0.00 0.00
7:08 pm 19:08 Cloudy with Light Rain 72 22 64 18 78 78 SW 8 13 30.15 1021 6 10 0.00 0.00
7:21 pm 19:21 Mostly Cloudy with Light Rain 72 22 66 19 83 83 S 8 13 30.15 1021 9 14 0.00 0.00
7:52 pm 19:52 Cloudy 73 22.8 68 20 84 84 SSW 8 13 30.16 1021 10 16 0.08 2.03
8:52 pm 20:52 Mostly Cloudy 73 22.8 66 18.9 79 79 SW 6 9 30.17 1022 10 16 0.00 0.03
9:52 pm 21:52 Cloudy 72 22.2 67 19.4 84 84 S 6 9 30.18 1022 10 16 0.00 0.00
10:52 pm 22:52 Cloudy 72 22.2 67 19.4 84 84 S 8 13 30.18 1022 10 16 0.00 0.00
11:52 pm 23:52 Mostly Cloudy 72 22.2 67 19.4 84 84 S 8 13 30.17 1022 10 16 0.00 0.00

Powered by AerisWeather